SINOD-D 3

Last updated on Wed Nov 05 2025 00:03:48 GMT+0000 (Coordinated Universal Time)

1 40977U 15058P 25308.17814162 .00003776 00000+0 33197-3 0 9992 2 40977 64.7724 257.3501 0130365 147.2730 213.6546 14.91774429 81165
UTC large
Height (km)
Speed (km/s)
/
Latitude / Longitude
Inclination (degrees)
Orbital Period (minutes)
Azimuth
Elevation
Range (km)
Doppler Factor

Next 0 passes for location: London (51.5072 / 0.1276)

Sorry there are no passes over London.